Wind_Speed
5 12 16 7 4 10 6 6 7 6 4 12 7 8 11 10 10 14 13 10 6 7 5 4 8 5 3 0 5 5 3 4 5 5 8 9 9 7 8 9 12 12 12 12
10 16 9 4 7 8 6 7 8 7 1 9 11 16 16 15 21 12 14 13 5 4 5 6 10 11 6 3 5 5 4 2 6 3 7 7 10 8 10 9 10 11 12 13
6 9 4 9 9 10 10 11 6 12 7 7 12 19 11 11 14 13 13 14 12 5 6 9 11 11 5 5 4 5 4 2 3 4 6 5 8 8 6 8 8 9 11 13
6 4 7 9 6 3 3 2 4 3 7 8 9 7 7 7 10 12 11 10 10 7 3 5 7 7 6 6 4 4 4 3 1 3 4 2 4 5 7 7 9 10 11 14
9 7 4 3 5 8 3 3 7 9 7 9 7 5 7 11 10 7 7 9 10 9 1 4 6 7 8 5 3 2 2 1 1 2 3 1 4 6 9 10 10 12 12 15
13 11 10 3 8 5 7 9 11 14 14 3 6 3 9 3 8 9 9 9 12 15 14 14 8 3 4 8 4 2 1 1 0 1 1 3 2 5 7 7 8 11 13 16
10 13 12 8 8 8 8 7 5 3 2 5 7 5 6 3 5 6 8 8 9 21 19 12 10 7 5 2 3 4 5 4 3 3 4 4 5 5 6 8 8 10 12 13
7 4 11 15 13 4 8 6 4 2 2 4 6 5 4 8 8 7 8 6 8 12 17 17 13 13 7 9 5 1 4 7 7 7 6 7 8 10 9 9 9 9 11 14
2 4 4 4 11 11 4 5 5 4 1 1 7 14 13 15 10 8 4 6 8 8 12 15 11 17 22 14 12 11 12 12 10 10 11 10 8 9 13 13 12 12 11 13
3 1 7 3 5 3 4 4 6 3 3 1 2 8 16 19 14 12 14 10 7 4 7 17 12 28 21 17 13 18 25 22 27 27 20 15 16 14 12 14 15 14 14 14
1 4 3 4 6 6 4 5 3 4 1 6 2 2 8 14 11 7 7 7 7 9 10 7 7 6 11 15 24 20 18 19 20 30 26 24 20 20 18 18 16 16 17 18
1 4 10 2 6 5 3 6 10 2 3 3 3 4 12 10 13 6 7 9 9 9 10 5 7 9 9 11 17 20 30 13 16 29 23 20 21 24 25 21 22 18 19 20
3 4 7 3 11 7 2 4 4 4 2 0 5 6 21 18 11 10 10 13 12 7 6 6 7 12 11 9 14 15 15 16 16 9 25 23 28 26 25 26 26 24 22 24
5 5 7 4 1 5 6 6 7 7 5 4 7 10 21 16 13 13 16 14 11 11 12 16 17 17 17 15 18 24 25 20 16 10 19 23 25 25 29 29 31 30 27 27
3 4 9 2 4 8 11 14 11 10 11 12 13 14 19 16 16 15 14 14 15 16 18 19 22 23 26 30 33 33 30 26 23 18 22 26 26 25 31 34 39 36 33 30
4 5 5 8 10 12 14 16 14 13 12 13 10 15 15 13 11 11 10 11 14 16 17 17 18 23 27 28 28 29 26 27 24 24 27 32 35 34 34 36 42 39 41 36
8 9 10 8 6 9 6 3 5 9 8 10 16 13 16 12 13 14 15 17 18 20 22 25 27 24 25 31 32 30 29 23 23 23 26 31 35 40 43 42 41 42 50 37
17 12 6 4 6 1 2 6 3 7 9 10 11 14 15 16 16 17 18 20 22 24 25 26 27 27 31 35 39 35 36 38 33 30 30 33 35 34 36 37 43 51 49 46
16 13 7 3 5 7 7 9 7 6 9 12 10 12 14 15 16 17 20 22 26 24 24 27 32 35 38 40 41 42 41 42 42 38 32 28 38 40 37 36 35 36 38 45
14 14 12 8 4 6 6 12 11 8 10 14 14 15 15 17 21 22 23 24 24 27 35 39 41 42 45 45 45 45 43 41 39 40 36 32 31 42 45 42 39 37 38 34
19 17 16 15 8 6 12 13 13 12 15 17 19 20 22 24 27 30 33 37 40 43 44 43 37 37 38 37 39 40 40 41 39 39 37 35 33 33 39 47 47 43 40 38
10 11 12 10 9 7 12 13 13 15 14 15 17 21 25 28 32 36 38 40 43 46 46 42 38 38 39 39 38 37 38 37 38 39 40 39 37 35 36 38 43 46 46 43
5 8 7 9 7 9 9 12 12 13 15 17 19 24 29 31 33 38 44 47 47 44 40 39 41 41 39 39 40 40 40 40 38 41 43 41 40 38 36 37 37 39 44 48
7 11 10 11 11 11 11 12 15 14 15 18 22 26 31 37 42 46 41 39 40 41 41 44 44 44 44 41 41 40 42 40 40 39 38 39 39 37 35 36 38 38 39 45
13 13 13 14 14 14 13 13 17 21 26 31 35 39 41 42 41 41 43 43 45 45 46 46 47 50 49 48 49 47 42 39 39 40 39 38 36 35 34 34 36 38 36 42
12 13 13 12 10 12 14 19 24 27 31 35 34 37 37 37 37 38 40 43 44 45 45 47 44 43 44 46 45 39 33 35 38 39 38 38 37 34 33 31 30 33 37 36
Wind_Direction
161 190 197 165 296 328 305 290 272 254 252 227 267 286 309 284 272 266 273 279 18 43 2 21 53 44 51 134 173 173 122 21 1 253 244 246 242 240 243 255 239 225 202 195
168 181 173 277 332 309 262 282 289 262 296 242 267 289 298 294 288 294 279 281 323 338 18 10 43 38 40 45 157 164 139 22 7 295 251 216 226 242 243 251 244 239 215 200
203 147 293 302 299 270 265 286 293 296 294 240 273 287 283 295 261 262 275 271 271 314 335 340 358 25 47 64 130 146 138 88 344 300 270 223 232 245 278 257 260 231 221 208
246 214 309 310 265 272 275 70 327 5 251 257 274 278 254 241 237 246 250 255 266 268 337 359 27 38 63 77 81 138 131 116 13 336 295 246 231 248 237 245 234 228 215 215
210 236 284 293 268 277 268 300 291 288 285 298 282 237 290 252 214 226 246 251 259 242 102 84 66 41 49 46 72 54 96 105 26 349 11 285 252 255 258 255 248 236 225 210
233 241 265 238 249 255 270 285 286 278 284 278 154 257 28 73 223 245 247 240 243 232 227 223 213 197 10 11 24 356 34 257 298 279 352 360 288 257 273 269 258 243 227 219
261 261 253 235 231 233 252 291 330 334 10 220 232 71 25 69 261 251 241 229 234 227 222 209 217 219 257 321 356 347 326 303 294 316 305 307 310 315 275 271 271 254 239 219
303 7 219 228 225 253 225 266 226 244 221 286 70 81 109 116 167 240 227 239 247 208 204 225 234 249 258 239 230 212 326 302 308 312 313 328 305 305 305 289 267 264 251 229
277 29 187 232 232 247 296 275 275 219 269 89 115 100 115 117 118 147 164 169 166 191 220 228 243 264 252 270 251 257 270 289 302 302 293 300 315 302 301 299 281 264 255 244
275 3 84 108 218 75 335 272 261 236 143 217 194 166 147 158 150 144 138 146 129 100 242 224 258 273 255 263 266 269 264 267 278 269 272 293 296 290 280 279 286 283 267 256
155 307 286 359 50 25 359 52 254 249 203 159 170 122 156 173 166 187 219 236 250 303 326 308 246 268 291 310 248 268 255 253 270 286 298 261 271 270 271 270 264 272 271 264
224 267 288 326 146 151 99 51 36 16 230 204 178 166 156 177 170 197 277 284 291 303 297 203 267 293 286 280 273 278 280 293 244 273 277 239 257 271 271 272 269 251 259 265
316 288 292 287 205 199 326 7 356 334 329 221 169 190 181 184 212 236 259 266 273 257 243 260 268 293 310 288 268 272 280 280 280 286 250 258 258 268 264 262 262 254 247 253
327 311 244 237 173 291 303 303 285 263 265 231 241 203 191 199 215 220 242 247 250 243 263 270 289 303 302 302 304 303 311 313 306 275 242 271 269 271 270 262 260 256 247 243
297 217 210 209 299 295 288 287 274 263 262 253 267 218 205 208 210 216 215 228 236 250 265 278 290 300 307 314 312 314 317 312 299 270 266 275 266 264 255 255 255 255 249 243
238 232 231 272 278 278 278 279 281 256 257 265 235 193 198 209 215 232 240 232 229 246 262 276 291 298 302 307 306 299 295 289 287 271 258 257 261 260 263 263 256 257 254 249
256 258 274 282 287 302 253 303 228 231 229 227 194 204 193 206 225 237 248 256 260 265 273 284 300 305 306 310 309 304 302 296 275 267 265 266 264 264 263 257 257 258 260 264
272 239 231 251 312 76 161 152 187 251 168 188 220 186 191 221 242 256 269 279 289 296 299 301 302 303 304 306 308 302 300 302 297 286 268 258 263 265 268 269 260 257 259 264
239 224 235 229 173 153 194 207 192 208 185 179 206 204 221 242 257 270 284 293 297 289 287 294 298 298 298 297 296 294 292 293 295 294 288 272 260 262 263 267 271 270 268 266
209 221 238 206 188 205 223 226 232 258 240 235 234 239 250 265 271 280 283 284 284 288 297 296 297 296 297 295 294 294 293 291 289 290 284 274 270 257 261 263 264 266 270 271
214 226 228 234 232 229 230 225 235 241 270 269 270 274 279 285 289 292 294 294 296 298 302 303 292 287 294 292 291 291 291 292 289 285 283 278 277 268 262 259 262 262 263 268
211 210 220 233 235 236 243 243 254 272 277 275 275 281 286 290 293 294 296 299 299 300 299 300 297 290 291 298 291 289 289 291 285 284 283 280 279 277 270 267 261 261 259 259
201 223 227 233 228 221 240 266 281 288 290 289 290 292 294 294 298 300 300 299 299 298 298 298 297 294 290 290 287 282 287 287 283 278 281 280 278 277 275 272 265 260 260 256
239 239 239 245 250 254 264 270 283 291 291 290 289 290 293 296 297 300 300 298 298 297 295 297 295 293 294 291 285 282 286 286 282 282 279 278 277 273 270 269 268 261 258 257
252 254 254 260 268 266 277 286 298 306 308 307 304 301 296 294 294 295 295 292 292 294 297 297 298 298 294 288 283 281 285 281 277 276 275 273 274 273 272 269 266 260 258 255
263 276 280 269 266 269 285 301 308 305 303 302 301 299 294 293 292 292 293 294 296 296 296 299 299 300 299 295 289 282 279 277 276 277 277 276 271 269 269 268 262 259 256 258
Height
3172 3174 3176 3179 3179 3178 3177 3177 3176 3177 3177 3177 3176 3175 3174 3173 3174 3174 3174 3176 3177 3179 3180 3181 3182 3183 3185 3186 3186 3187 3188 3189 3189 3188 3190 3191 3191 3192 3192 3195 3196 3198 3201 3202
3173 3173 3177 3177 3177 3176 3175 3175 3175 3175 3175 3176 3175 3173 3173 3171 3170 3172 3174 3175 3177 3178 3179 3181 3184 3184 3185 3186 3186 3186 3187 3187 3188 3188 3189 3189 3190 3190 3191 3192 3194 3196 3199 3201
3172 3174 3175 3175 3174 3174 3173 3174 3173 3173 3174 3175 3174 3170 3170 3170 3168 3171 3172 3174 3177 3179 3181 3183 3184 3185 3185 3185 3185 3186 3186 3186 3186 3187 3188 3189 3190 3190 3191 3191 3192 3193 3196 3198
3171 3172 3172 3172 3171 3172 3172 3172 3172 3171 3172 3172 3171 3169 3167 3167 3168 3170 3172 3173 3176 3179 3182 3183 3184 3185 3185 3185 3186 3186 3186 3186 3186 3186 3187 3188 3190 3189 3190 3190 3191 3192 3193 3195
3171 3170 3170 3170 3171 3171 3172 3171 3170 3170 3169 3169 3168 3168 3164 3164 3167 3170 3172 3172 3175 3178 3181 3184 3185 3185 3186 3187 3187 3188 3187 3187 3187 3187 3187 3187 3187 3188 3187 3188 3189 3191 3191 3192
3167 3168 3168 3168 3169 3170 3170 3169 3168 3166 3166 3166 3164 3165 3163 3163 3166 3168 3170 3171 3173 3178 3179 3181 3184 3185 3188 3190 3190 3189 3188 3188 3187 3188 3188 3188 3188 3188 3187 3186 3187 3188 3190 3191
3167 3165 3166 3166 3167 3168 3168 3168 3167 3167 3166 3165 3163 3164 3166 3164 3166 3168 3168 3170 3170 3173 3178 3182 3183 3185 3187 3187 3188 3190 3189 3189 3189 3189 3189 3189 3189 3188 3187 3187 3186 3186 3187 3189
3165 3165 3162 3163 3165 3167 3167 3167 3167 3169 3168 3163 3163 3166 3169 3165 3165 3167 3168 3169 3170 3173 3177 3179 3182 3185 3184 3184 3184 3186 3189 3190 3189 3190 3190 3189 3189 3189 3188 3187 3186 3185 3185 3185
3165 3164 3162 3164 3165 3167 3165 3165 3165 3164 3163 3163 3166 3169 3170 3168 3169 3168 3167 3170 3171 3174 3177 3179 3182 3183 3184 3183 3181 3183 3186 3190 3190 3188 3188 3189 3187 3187 3187 3186 3185 3184 3183 3182
3165 3164 3163 3163 3165 3165 3164 3164 3164 3163 3165 3166 3164 3166 3166 3170 3170 3170 3169 3170 3172 3175 3178 3179 3183 3182 3180 3178 3177 3178 3180 3183 3184 3180 3176 3180 3183 3183 3183 3182 3182 3182 3181 3179
3164 3165 3166 3165 3165 3163 3164 3162 3161 3162 3162 3162 3166 3166 3168 3169 3170 3169 3170 3171 3171 3172 3174 3176 3173 3173 3174 3174 3175 3176 3173 3178 3180 3176 3145 3157 3176 3179 3179 3178 3177 3177 3178 3177
3162 3163 3163 3165 3163 3163 3162 3162 3161 3160 3162 3160 3161 3165 3165 3169 3168 3168 3168 3168 3169 3169 3170 3171 3171 3171 3174 3173 3174 3174 3174 3175 3179 3178 3175 3163 3169 3172 3171 3172 3174 3171 3172 3173
3162 3162 3162 3162 3164 3161 3160 3161 3161 3161 3160 3159 3159 3162 3162 3166 3167 3166 3166 3166 3166 3167 3168 3170 3170 3169 3170 3170 3170 3170 3170 3170 3170 3168 3168 3165 3165 3161 3161 3165 3165 3165 3164 3165
3160 3160 3161 3162 3162 3161 3160 3160 3160 3159 3158 3157 3157 3157 3159 3161 3165 3165 3165 3163 3164 3165 3166 3167 3167 3166 3166 3167 3166 3165 3165 3165 3165 3162 3159 3159 3156 3156 3156 3156 3157 3157 3156 3156
3160 3160 3160 3161 3161 3159 3159 3157 3157 3156 3155 3154 3153 3154 3156 3158 3161 3163 3164 3162 3162 3162 3163 3163 3164 3163 3161 3159 3158 3157 3155 3155 3156 3156 3156 3152 3152 3151 3150 3148 3145 3146 3147 3146
3158 3159 3158 3159 3158 3157 3155 3153 3152 3152 3152 3151 3150 3152 3154 3156 3158 3159 3161 3162 3162 3162 3161 3160 3159 3158 3157 3155 3153 3151 3151 3150 3149 3147 3146 3144 3142 3142 3140 3138 3136 3135 3135 3136
3156 3156 3155 3154 3154 3153 3152 3150 3149 3148 3148 3148 3148 3151 3152 3154 3155 3155 3156 3156 3156 3156 3155 3155 3153 3152 3151 3149 3147 3144 3141 3142 3140 3138 3137 3135 3132 3129 3127 3125 3126 3125 3111 3109
3151 3151 3151 3151 3151 3152 3151 3150 3149 3148 3147 3148 3149 3150 3151 3151 3152 3153 3152 3151 3150 3148 3146 3143 3141 3140 3138 3137 3138 3137 3133 3130 3130 3130 3128 3126 3124 3122 3119 3114 3112 3111 3110 3104
3146 3147 3148 3148 3149 3152 3150 3150 3150 3149 3149 3148 3150 3150 3150 3150 3150 3150 3149 3148 3147 3145 3143 3140 3136 3133 3130 3128 3125 3124 3124 3121 3119 3117 3116 3115 3114 3112 3111 3108 3105 3101 3098 3095
3142 3144 3146 3146 3147 3148 3147 3147 3147 3147 3148 3148 3148 3149 3149 3148 3147 3148 3146 3144 3142 3139 3137 3133 3129 3125 3121 3118 3113 3111 3110 3108 3108 3105 3104 3104 3103 3102 3099 3098 3097 3096 3094 3094
3138 3139 3141 3141 3142 3143 3144 3145 3145 3146 3147 3144 3144 3144 3144 3143 3142 3139 3138 3136 3133 3129 3125 3122 3118 3115 3113 3110 3105 3101 3098 3096 3094 3092 3092 3092 3091 3091 3090 3088 3087 3087 3087 3085
3136 3137 3138 3138 3139 3141 3140 3141 3144 3143 3140 3141 3140 3139 3138 3137 3134 3131 3128 3125 3123 3119 3114 3111 3106 3103 3101 3098 3094 3091 3088 3087 3084 3081 3078 3079 3080 3079 3077 3076 3076 3075 3076 3077
3136 3136 3136 3138 3136 3136 3137 3137 3137 3137 3137 3136 3135 3133 3130 3128 3125 3122 3119 3115 3111 3106 3103 3100 3095 3091 3090 3088 3083 3079 3078 3074 3072 3068 3065 3065 3064 3065 3065 3063 3064 3064 3063 3065
3133 3133 3134 3134 3134 3133 3134 3134 3134 3133 3133 3131 3129 3126 3124 3119 3116 3111 3107 3103 3100 3096 3092 3089 3084 3079 3076 3074 3070 3067 3064 3061 3058 3055 3053 3052 3051 3052 3052 3051 3051 3051 3052 3051
3131 3131 3131 3131 3131 3131 3130 3129 3129 3127 3125 3123 3120 3117 3114 3109 3105 3101 3097 3093 3089 3085 3081 3076 3071 3065 3060 3057 3053 3051 3050 3047 3044 3042 3041 3041 3041 3040 3039 3039 3038 3038 3039 3040
3127 3128 3128 3128 3129 3129 3129 3127 3124 3122 3119 3116 3111 3107 3103 3099 3094 3090 3086 3082 3077 3073 3068 3064 3058 3052 3047 3040 3036 3036 3036 3032 3030 3028 3028 3028 3028 3028 3028 3028 3027 3027 3028 3029